Weather History for Monticello, IA

Change the Weather History Date:

Sunday, February 9, 2014

  Actual Average Record
Temperature  
Mean Temperature -2 °F -  
Max Temperature 6 °F 32 °F 51 °F (1999)
Min Temperature -9 °F 16 °F -9 °F (2014)
Degree Days  
Heating Degree Days 66    
Moisture  
Dew Point -6 °F    
Average Humidity 75    
Maximum Humidity 92    
Minimum Humidity 61    
Precipitation  
Precipitation 0.00 in - - ()
Sea Level Pressure  
Sea Level Pressure 30.24 in    
Wind  
Wind Speed 4 mph (WNW)    
Max Wind Speed 17 mph    
Max Gust Speed 24 mph    
Visibility 8 miles    
Events      
Averages and records for this station are not official NWS values.
T = Trace of Precipitation, MM = Missing Value Source: NWS Daily Summary

Daily Weather History Graph

Daily Weather History Graph

Search for Another Location

Airport:

Trip Planner

Search our weather history database for the weather conditions in past years. The results will help you decide how hot, cold, wet, or windy it might be!

Date:

Astronomy

Feb. 09, 2014 Rise Set
Actual Time 7:08 AM CST 5:29 PM CST
Civil Twilight 6:39 AM CST 5:58 PM CST
Nautical Twilight 6:06 AM CST 6:31 PM CST
Astronomical Twilight 5:33 AM CST 7:04 PM CST
Moon 1:07 PM CST (2/9) 3:15 AM CST (2/9)
Length of Visible Light 11h 19m
Length of Day
10h 20m
Waxing Gibbous, 77% of the Moon is Illuminated
Feb 9
Waxing Gibbous
Feb 14
Full
Feb 22
Last Quarter
Mar 1
New
Mar 8
First Quarter

Hourly Weather History & Observations

Time (CST) Temp. Windchill Dew Point Humidity Pressure Visibility Wind Dir Wind Speed Gust Speed Precip Events Conditions
12:15 AM 5.0 °F - 3.2 °F 92% 30.14 in 6.0 mi Calm Calm - N/A   Overcast
12:35 AM 1.4 °F - -2.2 °F 85% 30.15 in 2.5 mi Calm Calm - N/A   Overcast
12:55 AM 3.2 °F - -0.4 °F 85% 30.14 in 4.0 mi Calm Calm - N/A   Overcast
1:15 AM -0.4 °F - -5.8 °F 78% 30.14 in 5.0 mi Calm Calm - N/A   Haze
1:35 AM -0.4 °F - -4.0 °F 85% 30.14 in 5.0 mi Calm Calm - N/A   Haze
1:55 AM 1.4 °F - -2.2 °F 85% 30.15 in 5.0 mi Calm Calm - N/A   Haze
2:15 AM 1.4 °F - -4.0 °F 78% 30.16 in 5.0 mi Calm Calm - N/A   Haze
2:35 AM 1.4 °F - -2.2 °F 85% 30.16 in 3.0 mi Calm Calm - N/A   Haze
2:55 AM -0.4 °F - -4.0 °F 85% 30.16 in 3.0 mi Calm Calm - N/A   Haze
3:15 AM 1.4 °F - -4.0 °F 78% 30.16 in 4.0 mi Calm Calm - N/A   Haze
3:35 AM -0.4 °F - -4.0 °F 85% 30.16 in 6.0 mi Calm Calm - N/A   Haze
3:55 AM -2.2 °F - -5.8 °F 85% 30.16 in 6.0 mi Calm Calm - N/A   Haze
4:15 AM -4.0 °F - -9.4 °F 78% 30.17 in 4.0 mi Calm Calm - N/A   Haze
4:35 AM -2.2 °F - -7.6 °F 78% 30.17 in 1.2 mi Calm Calm - N/A   Haze
4:55 AM -4.0 °F - -9.4 °F 78% 30.17 in 2.0 mi Calm Calm - N/A   Haze
5:15 AM -2.2 °F - -7.6 °F 78% 30.17 in 6.0 mi Calm Calm - N/A   Haze
5:35 AM -7.6 °F - -13.0 °F 77% 30.18 in 2.5 mi Calm Calm - N/A   Haze
5:55 AM -7.6 °F - -13.0 °F 77% 30.18 in 5.0 mi Calm Calm - N/A   Scattered Clouds
6:15 AM -5.8 °F - -11.2 °F 77% 30.17 in 5.0 mi Calm Calm - N/A   Haze
6:35 AM -7.6 °F - -13.0 °F 77% 30.18 in 6.0 mi Calm Calm - N/A   Haze
6:55 AM -9.4 °F - -14.8 °F 77% 30.18 in 5.0 mi Calm Calm - N/A   Haze
7:15 AM -7.6 °F - -14.8 °F 71% 30.20 in 5.0 mi Calm Calm - N/A   Haze
7:35 AM -7.6 °F - -13.0 °F 77% 30.20 in 5.0 mi Calm Calm - N/A   Haze
7:55 AM -7.6 °F - -13.0 °F 77% 30.22 in 4.0 mi Calm Calm - N/A   Haze
8:15 AM -4.0 °F -12.4 °F -9.4 °F 78% 30.21 in 3.0 mi NNW 3.5 mph - N/A   Haze
8:35 AM -2.2 °F - -7.6 °F 78% 30.21 in 6.0 mi Calm Calm - N/A   Haze
8:55 AM -5.8 °F -16.7 °F -11.2 °F 77% 30.22 in 5.0 mi South 4.6 mph - N/A   Haze
9:15 AM -2.2 °F - -7.6 °F 78% 30.22 in 7.0 mi Calm Calm - N/A   Scattered Clouds
9:35 AM -0.4 °F - -5.8 °F 78% 30.22 in 7.0 mi Calm Calm - N/A   Scattered Clouds
9:55 AM 1.4 °F -11.3 °F -2.2 °F 85% 30.23 in 8.0 mi West 6.9 mph - N/A   Partly Cloudy
10:15 AM 1.4 °F -9.9 °F -2.2 °F 85% 30.24 in 8.0 mi WSW 5.8 mph - N/A   Partly Cloudy
10:35 AM 3.2 °F -7.8 °F -0.4 °F 85% 30.24 in 9.0 mi WSW 5.8 mph - N/A   Clear
10:55 AM 5.0 °F -6.9 °F -0.4 °F 78% 30.24 in 9.0 mi West 6.9 mph - N/A   Clear
11:15 AM 6.8 °F -5.9 °F 1.4 °F 79% 30.23 in 9.0 mi WNW 8.1 mph - N/A   Clear
11:35 AM 5.0 °F -8.1 °F 1.4 °F 85% 30.23 in 9.0 mi WNW 8.1 mph - N/A   Clear
11:55 AM 6.8 °F -4.8 °F 1.4 °F 79% 30.22 in 10.0 mi West 6.9 mph - N/A   Clear
12:15 PM 5.0 °F -11.6 °F 1.4 °F 85% 30.23 in 10.0 mi West 12.7 mph - N/A   Clear
12:35 PM 5.0 °F -9.1 °F 1.4 °F 85% 30.22 in 10.0 mi WNW 9.2 mph 16.1 mph N/A   Clear
12:55 PM 5.0 °F -12.3 °F 1.4 °F 85% 30.22 in 10.0 mi West 13.8 mph - N/A   Clear
1:20 PM 5.0 °F -10.8 °F 1.4 °F 85% 30.22 in 10.0 mi WNW 11.5 mph - N/A   Clear
1:35 PM 5.0 °F -10.8 °F -0.4 °F 78% 30.22 in 10.0 mi West 11.5 mph - N/A   Clear
1:55 PM 5.0 °F -10.0 °F -0.4 °F 78% 30.24 in 10.0 mi West 10.4 mph - N/A   Clear
2:15 PM 6.8 °F -10.0 °F -0.4 °F 72% 30.24 in 10.0 mi WNW 13.8 mph - N/A   Clear
2:35 PM 6.8 °F -11.3 °F -0.4 °F 72% 30.24 in 10.0 mi WNW 16.1 mph - N/A   Clear
3:00 PM 6.8 °F -11.8 °F -2.2 °F 67% 30.25 in 10.0 mi WNW 17.3 mph 23.0 mph N/A   Clear
3:15 PM 6.8 °F -10.0 °F -2.2 °F 67% 30.25 in 10.0 mi WNW 13.8 mph 21.9 mph N/A   Clear
3:35 PM 6.8 °F -11.3 °F -4.0 °F 61% 30.25 in 10.0 mi WNW 16.1 mph - N/A   Clear
3:55 PM 6.8 °F -11.8 °F -4.0 °F 61% 30.26 in 10.0 mi WNW 17.3 mph - N/A   Clear
4:15 PM 6.8 °F -11.3 °F -4.0 °F 61% 30.26 in 10.0 mi WNW 16.1 mph 23.0 mph N/A   Clear
4:35 PM 5.0 °F -14.2 °F -4.0 °F 66% 30.26 in 10.0 mi WNW 17.3 mph 24.2 mph N/A   Clear
4:55 PM 5.0 °F -13.6 °F -5.8 °F 61% 30.27 in 10.0 mi WNW 16.1 mph - N/A   Clear
5:15 PM 3.2 °F -15.3 °F -5.8 °F 66% 30.27 in 10.0 mi WNW 15.0 mph - N/A   Clear
5:35 PM 3.2 °F -14.6 °F -5.8 °F 66% 30.28 in 10.0 mi WNW 13.8 mph 20.7 mph N/A   Clear
5:55 PM 3.2 °F -13.1 °F -5.8 °F 66% 30.29 in 10.0 mi WNW 11.5 mph 20.7 mph N/A   Clear
6:15 PM 1.4 °F -14.5 °F -7.6 °F 66% 30.30 in 10.0 mi West 10.4 mph - N/A   Clear
6:35 PM 1.4 °F -14.5 °F -7.6 °F 66% 30.32 in 10.0 mi WNW 10.4 mph - N/A   Clear
6:55 PM 1.4 °F -16.1 °F -7.6 °F 66% 30.32 in 10.0 mi WNW 12.7 mph - N/A   Clear
7:15 PM 1.4 °F -14.5 °F -7.6 °F 66% 30.33 in 10.0 mi NW 10.4 mph - N/A   Clear
7:35 PM 1.4 °F -14.5 °F -7.6 °F 66% 30.33 in 10.0 mi NW 10.4 mph 17.3 mph N/A   Clear
7:55 PM 1.4 °F -12.5 °F -9.4 °F 61% 30.33 in 10.0 mi WNW 8.1 mph - N/A   Clear
8:15 PM -0.4 °F -13.4 °F -9.4 °F 66% 30.33 in 10.0 mi NW 6.9 mph 13.8 mph N/A   Clear
8:35 PM -0.4 °F -13.4 °F -9.4 °F 66% 30.34 in 10.0 mi WNW 6.9 mph - N/A   Clear
8:55 PM -0.4 °F -15.7 °F -9.4 °F 66% 30.35 in 10.0 mi West 9.2 mph - N/A   Clear
9:15 PM -2.2 °F -18.0 °F -11.2 °F 66% 30.35 in 10.0 mi WNW 9.2 mph - N/A   Clear
9:35 PM -2.2 °F -18.9 °F -11.2 °F 66% 30.35 in 10.0 mi NW 10.4 mph - N/A   Clear
9:55 PM -2.2 °F -18.9 °F -9.4 °F 71% 30.35 in 10.0 mi NW 10.4 mph - N/A   Clear
10:15 PM -2.2 °F -19.9 °F -11.2 °F 66% 30.35 in 10.0 mi NW 11.5 mph - N/A   Clear
10:35 PM -2.2 °F -18.9 °F -11.2 °F 66% 30.35 in 10.0 mi NW 10.4 mph - N/A   Clear
10:55 PM -4.0 °F -17.8 °F -11.2 °F 71% 30.35 in 10.0 mi NW 6.9 mph - N/A   Clear
11:15 PM -4.0 °F -16.3 °F -11.2 °F 71% 30.36 in 10.0 mi NW 5.8 mph - N/A   Clear
11:35 PM -7.6 °F -18.8 °F -14.8 °F 71% 30.36 in 10.0 mi West 4.6 mph - N/A   Clear
11:55 PM -7.6 °F -18.8 °F -14.8 °F 71% 30.36 in 10.0 mi West 4.6 mph - N/A   Clear